Location: Dallas
(32.7833°N, 96.8000°W)
Time: 10:15:25
(UTC-05:00)

Envisat - Visible Passes

Search period start: 23 September 2023 00:00
Search period end: 03 October 2023 00:00
Orbit: 763 x 764 km, 98.2° (Epoch: 22 September)

Date Brightness Start Highest point End Pass type
(mag) Time Alt. Az. Time Alt. Az. Time Alt. Az.
23 Sep 5.1 04:09:36 10° NE 04:12:57 22° E 04:12:57 22° E visible
23 Sep 3.7 05:48:01 10° N 05:52:30 32° WNW 05:53:06 31° W visible
24 Sep 2.8 05:10:24 10° N 05:15:22 79° WNW 05:15:22 79° WNW visible
25 Sep 4.2 04:33:29 10° NNE 04:37:37 39° E 04:37:37 39° E visible
25 Sep 4.3 06:13:26 10° NNW 06:16:53 19° WNW 06:17:46 18° W visible
26 Sep 5.5 03:57:39 10° NE 03:59:52 16° E 03:59:52 16° E visible
26 Sep 3.3 05:35:11 10° N 05:39:59 43° WNW 05:40:02 43° WNW visible
27 Sep 3.2 04:57:48 10° NNE 05:02:16 66° NE 05:02:16 66° NE visible
27 Sep 4.9 06:40:43 10° WNW 06:41:09 10° WNW 06:41:35 10° WNW visible
28 Sep 4.8 04:21:09 10° NE 04:24:31 28° ENE 04:24:31 28° ENE visible
28 Sep 4.0 06:00:21 10° NNW 06:04:24 25° WNW 06:04:41 24° WNW visible
29 Sep 5.9 03:46:10 10° ENE 03:46:46 11° ENE 03:46:46 11° ENE visible
29 Sep 3.1 05:22:27 10° N 05:26:55 56° NW 05:26:55 56° NW visible
30 Sep 3.9 04:45:17 10° NNE 04:49:10 46° NE 04:49:10 46° NE visible
30 Sep 4.6 06:26:11 10° NW 06:28:42 14° WNW 06:29:20 14° WNW visible
01 Oct 5.3 04:08:58 10° NE 04:11:24 20° ENE 04:11:24 20° ENE visible
01 Oct 3.7 05:47:24 10° N 05:51:34 32° WNW 05:51:34 32° WNW visible
02 Oct 3.3 05:09:46 10° N 05:13:48 56° N 05:13:48 56° N visible
